Location: Ç?ral? Körfezi
(36.3984°N, 30.4829°E)
Time: 03:55:18
(UTC+00:00)

Cosmos 1867 - Pass Details

Date: 04 August 2024
Orbit: 772 x 802 km, 65.0° (Epoch: 09 September)

Event Time Altitude Azimuth Distance (km) Brightness Sun altitude
Rises 20:04:21 0° 335° (NNW) 3,316 8.0 -29.6°
Reaches altitude 10° 20:06:54 10° 342° (NNW) 2,382 6.9 -29.9°
Enters shadow 20:11:21 44° 29° (NNE) 1,102 4.4 -30.4°
